Weather History for HEGN - February, 2013

Change the Weather History Date:

Saturday, February 23, 2013

  Actual Average Record
Temperature  
Mean Temperature 72 °F -  
Max Temperature 81 °F 74 °F 86 °F (2007)
Min Temperature 64 °F 57 °F 48 °F (2004)
Cooling Degree Days 8    
Growing Degree Days 22 (Base 50)    
Moisture  
Dew Point 43 °F    
Average Humidity 34    
Maximum Humidity 64    
Minimum Humidity 13    
Precipitation  
Precipitation 0.00 in - - ()
Sea Level Pressure  
Sea Level Pressure 29.99 in    
Wind  
Wind Speed 16 mph ()    
Max Wind Speed 22 mph    
Max Gust Speed -    
Visibility 2.3 miles    
Events      
Averages and records for this station are not official NWS values.
T = Trace of Precipitation, MM = Missing Value Source: Averaged Metar Reports

Daily Weather History Graph

Daily Weather History Graph

Search for Another Location

Airport or City:

Trip Planner

Search our weather history database for the weather conditions in past years. The results will help you decide how hot, cold, wet, or windy it might be!

Date:

Astronomy

Feb. 23, 2013 Rise Set
Actual Time 6:14 AM EET 5:41 PM EET
Civil Twilight 5:51 AM EET 6:05 PM EET
Nautical Twilight 5:24 AM EET 6:32 PM EET
Astronomical Twilight 4:56 AM EET 6:59 PM EET
Moon 3:38 PM EET (2/23) 4:16 AM EET (2/23)
Length of Visible Light 12h 14m
Length of Day
11h 27m
Waxing Gibbous, 94% of the Moon is Illuminated
Feb 23
Waxing Gibbous
Feb 25
Full
Mar 4
Last Quarter
Mar 11
New
Mar 19
First Quarter

Hourly Weather History & Observations

Time (EET) Temp. Dew Point Humidity Pressure Visibility Wind Dir Wind Speed Gust Speed Precip Events Conditions
12:00 AM 68.0 °F 55.4 °F 64% 29.86 in - North 11.5 mph - N/A   Clear
1:00 AM 69.8 °F 28.4 °F 21% 29.86 in 3.7 mi NNW 20.7 mph - N/A   Unknown
2:00 AM 72 °F 32 °F 13% 29.88 in 4 mi NNW 20.7 mph - -   Blowing Sand
2:00 AM 71.6 °F 32.0 °F 23% 29.86 in 3.7 mi NNW 20.7 mph - N/A   Unknown
3:00 AM 68.0 °F 30.2 °F 24% 29.89 in 3.7 mi North 9.2 mph - N/A   Unknown
4:00 AM 66.2 °F 30.2 °F 26% 29.89 in 2.5 mi WNW 17.3 mph - N/A   Sand
5:00 AM 66.2 °F 30.2 °F 26% 29.89 in 2.5 mi WNW 17.3 mph - N/A   Sand
6:00 AM 66.2 °F 33.8 °F 30% 29.95 in 2.5 mi NW 16.1 mph - N/A   Sand
7:00 AM 66.2 °F 37.4 °F 35% 29.98 in 1.2 mi NW 21.9 mph - N/A   Sand
8:00 AM 68 °F 40 °F 25% 30.01 in 1 mi WNW 19.6 mph - -   Blowing Sand
8:00 AM 68.0 °F 41.0 °F 37% 30.01 in 1.2 mi WNW 19.6 mph - N/A   Sand
9:00 AM 71.6 °F 44.6 °F 38% 30.04 in 1.9 mi NW 20.7 mph - N/A   Sand
10:00 AM 73.4 °F 42.8 °F 33% 30.04 in 1.9 mi NNW 21.9 mph - N/A   Sand
11:00 AM 77.0 °F 46.4 °F 34% 30.04 in 1.9 mi North 19.6 mph - N/A   Sand
12:00 PM 78.8 °F 48.2 °F 34% 30.04 in 1.9 mi North 18.4 mph - N/A   Sand
1:00 PM 80.6 °F 46.4 °F 30% 30.01 in 1.9 mi North 19.6 mph - N/A   Sand
2:00 PM 81 °F 48 °F 21% 30.01 in 2 mi NNE 17.3 mph - -   Blowing Sand
2:00 PM 80.6 °F 48.2 °F 32% 30.01 in 1.9 mi NNE 17.3 mph - N/A   Sand
3:00 PM 78.8 °F 48.2 °F 34% 30.01 in 1.9 mi NNE 21.9 mph - N/A   Sand
4:00 PM 77.0 °F 50.0 °F 39% 30.01 in 1.9 mi NNE 20.7 mph - N/A   Sand
5:00 PM 75.2 °F 51.8 °F 44% 30.01 in 1.9 mi North 19.6 mph - N/A   Sand
6:00 PM 73.4 °F 53.6 °F 50% 30.04 in 1.9 mi North 17.3 mph - N/A   Sand
7:00 PM 71.6 °F 48.2 °F 43% 30.04 in 1.9 mi NNW 16.1 mph - N/A   Sand
8:00 PM 70 °F 44 °F 27% 30.09 in 2 mi NW 18.4 mph - -   Blowing Sand
8:00 PM 69.8 °F 44.6 °F 40% 30.06 in 1.9 mi NW 18.4 mph - N/A   Sand
9:00 PM 69.8 °F 44.6 °F 40% 30.09 in 1.9 mi NW 16.1 mph - N/A   Sand
10:00 PM 68.0 °F 46.4 °F 46% 30.09 in 3.1 mi WNW 13.8 mph - N/A   Sand
11:00 PM 66.2 °F 46.4 °F 49% 30.12 in 3.1 mi WNW 13.8 mph - N/A   Sand